Volver al catálogo

MUOS 5

ActivoMilitarMEO
NORAD 41622·PAYLOAD·🇺🇸 United States

Lanzado Jun 24, 2016 desde Cape Canaveral Space Force Station

Loading…

Próximos Pases (próximas 24 horas)

TLE

ActualizadoSource: Space-Track

Época: Sep 14, 2026, 13:17 UTC

1 41622U 16041A   26257.55391080 -.00000170  00000-0  00000-0 0  9999
2 41622   2.0208 303.6874 0203708 260.7619 243.5146  1.00272668 37985

Sigue MUOS 5 en tiempo real con AllMySat

Download on the App Store